www.pogodaiklimat.ru

Погода и климат >> Архив погоды >> Россия >> Иркутская область >> Баяндай


ПОГОДА в Баяндае

  • Прогноз погоды в Баяндае
  • Монитор погоды в Баяндае

АРХИВ ПОГОДЫ в Баяндае

Время (UTC), дата Ветер
(напр.,м/с)
 
Видим.   Явления Облачность Т
(С)
Тd
(С)
f
(%)
Тe
(С)
Тes
(С)
Комфортность P
(гПа)
Po
(гПа)
Тmin
(С)
Tmax
(С)
R
(мм)
R24
(мм)
S
(см)
09 13.08 СЗ 2 50 км 8/8 600 м
[Cb calv Ci fib]
+18.4 +6.5 46 +19 +20 1006.5 921.5
12 13.08 штиль 0 50 км 6/5 600 м
[Cb calv Ci fib]
+14.8 +9.8 72 +15 +15 1007.9 922.0 +19.5
15 13.08 штиль 0 н/о 4/4 600 м
[Cb calv]
+9.9 +8.1 89 +9 +9 1009.9 922.3
18 13.08 ЮЗ 1 н/о 4/4 600 м
[Cb calv]
+9.4 +7.2 86 +9 +9 1009.6 921.8
21 13.08 С 2 20 км 9/8 600 м
[Cb calv Ci fib]
+6.7 +5.8 94 +4 +4 1010.5 921.8
00 14.08 С 2 50 км 9/0
[Ac As Ci fib]
+8.5 +7.1 91 +7 +8 1009.9 921.8 +6.6
03 14.08 СВ 2 50 км 10/3 1000 м
[Cu med, cong Ac trans Ci fib]
+11.9 +9.1 83 +11 +15 1009.3 922.3
06 14.08 С 2 50 км слаб. ливневой дождь 10/8 600 м
[Cb cap Ac As]
+13.2 +10.6 84 +12 +13 1009.4 922.8
09 14.08 ЮВ 1 20 км слаб. ливневой дождь 10/9 600 м
[Cb cap Ci fib]
+12.4 +10.7 89 +12 +13 1010.2 923.3
12 14.08 З 1 20 км слаб. ливневой дождь 10/10 600 м
[Cb cap]
+12.0 +10.8 92 +12 +12 1011.6 924.6 +14.5 1
15 14.08 штиль 0 н/о 10/10 600 м
[Cb calv]
+11.1 +10.0 93 +10 +10 1013.7 926.1
18 14.08 штиль 0 н/о 10/9 600 м
[Cb cap Ci fib]
+9.7 +8.7 93 +9 +9 1015.0 926.9
21 14.08 ЮЗ 1 20 км 10/9 600 м
[Cb cap Ci fib]
+8.8 +8.2 96 +8 +8 1016.4 927.9
00 15.08 Ю 1 500 м туман 10/10 1000 м
[Sc]
+9.7 +9.2 97 +9 +9 1016.8 928.6 +8.3
03 15.08 З 1 50 км {туман} 8/8 600 м
[Cb calv]
+14.5 +10.4 76 +15 +17 1015.3 928.6
06 15.08 З 1 50 км {туман} 10/10 600 м
[Cb calv]
+16.6 +9.9 65 +18 +18 1013.9 927.9
09 15.08 В 2 50 км 9/9 600 м
[Cb calv]
+17.2 +10.0 63 +18 +18 1013.1 927.3
12 15.08 ЮЗ 2 50 км 9/8 1000 м
[Sc Ac lent Ci fib]
+14.1 +11.2 83 +14 +14 1013.8 927.1 +17.5
15 15.08 ЮЗ 1 н/о 10/0
[Ac As Ci fib]
+11.2 +9.4 89 +11 +11 1014.5 926.9
18 15.08 З 1 н/о 9/0
[Ci fib]
+11.3 +9.0 86 +11 +11 1014.5 926.9
21 15.08 штиль 0 50 км ясно +8.7 +7.9 95 +8 +8 1014.9 926.5
00 16.08 С 1 20 км в посл. час туман ясно +10.5 +8.9 90 +10 +13 1014.9 927.0 +7.5
03 16.08 СВ 2 50 км 3/3 600 м
[Cb calv]
+13.2 +10.4 83 +12 +20 1013.3 926.4
06 16.08 В 2 10 км 3/3 600 м
[Cb calv]
+19.3 +8.7 50 +21 +29 комфорт 1010.4 925.4
09 16.08 СВ 1 20 км 3/3 600 м
[Cb calv]
+21.1 +5.3 36 +22 +25 комфорт 1008.6 924.2
12 16.08 С 2 20 км ясно +16.2 +11.2 72 +16 +16 1009.6 923.9 +21.3
15 16.08 С 2 н/о ясно +12.1 +8.9 81 +11 +11 1010.6 923.6
18 16.08 С 2 н/о ясно +10.9 +8.7 86 +10 +10 1010.2 922.9
21 16.08 С 3 20 км 3/0
[Ci fib]
+9.0 +7.7 92 +6 +6 1010.1 922.2
00 17.08 С 3 4000 м дымка ясно +8.9 +8.4 97 +6 +8 1009.4 921.5 +8.1
03 17.08 СВ 1 20 км 10/9 600 м
[Cb calv Ci fib]
+13.8 +11.0 83 +14 +15 1007.2 921.1
06 17.08 З 1 20 км слаб. ливневой дождь 10/10 600 м
[Cb cap]
+15.2 +12.0 81 +16 +16 1006.7 921.0
09 17.08 СЗ 3 20 км слаб. ливневой дождь 10/10 600 м
[Cb cap]
+13.4 +11.5 88 +12 +12 1008.3 921.9
12 17.08 СЗ 2 20 км в посл. час ливневой дождь 10/10 600 м
[Cb calv]
+12.8 +10.5 86 +12 +12 1008.8 922.2 +16.4 5
15 17.08 ЮЗ 1 н/о 10/10 600 м
[Cb calv]
+12.0 +11.0 94 +12 +12 1010.0 923.0
18 17.08 штиль 0 н/о 9/9 600 м
[Cb calv]
+10.3 +9.5 95 +9 +9 1011.2 923.6
21 17.08 штиль 0 500 м туман 9/9 600 м
[Cb calv]
+8.3 +7.8 97 +7 +7 1012.6 924.3
00 18.08 ЮЗ 1 500 м туман 9/6 600 м
[Cb calv Ci fib]
+8.9 +8.5 97 +8 +9 1013.6 925.4 +7.4
03 18.08 штиль 0 20 км {туман} 9/9 600 м
[Cb calv Ci fib]
+14.5 +11.0 80 +14 +16 1012.1 925.7
06 18.08 ЮЗ 3 20 км {туман} 9/8 600 м
[Cb calv Ci fib]
+17.6 +11.8 69 +18 +19 1010.2 924.8
09 18.08 ЮЗ 2 20 км 3/3 600 м
[Cb calv]
+17.9 +10.1 60 +18 +22 1009.5 924.3
12 18.08 З 1 10 км 9/3 600 м
[Cb calv Cs]
+14.3 +10.7 79 +15 +15 1010.4 924.1 +18.5
15 18.08 С 2 н/о ясно +11.6 +9.7 88 +10 +10 1011.5 924.3
18 18.08 С 3 н/о ясно +9.9 +8.1 89 +8 +8 1011.7 923.9
21 18.08 С 3 20 км ясно +8.2 +7.3 94 +5 +5 1011.8 923.5
00 19.08 С 2 200 м туман ясно +7.0 +6.6 97 +5 +5 1012.1 923.4 +6.4
03 19.08 СВ 2 10 км в посл. час туман 9/0
[Cs]
+12.8 +10.5 86 +12 +20 1010.2 923.4
06 19.08 СВ 2 20 км {туман} 9/4 600 м
[Cb calv Cs]
+19.0 +8.1 49 +20 +26 1007.9 923.0
09 19.08 С 2 50 км 9/8 600 м
[Cb calv Cs]
+19.3 +6.5 43 +20 +21 1007.5 922.7
12 19.08 СЗ 2 20 км 9/5 600 м
[Cb calv Ac trans Ci fib]
+16.5 +8.8 60 +17 +17 1009.1 923.5 +20.3
15 19.08 СЗ 3 н/о 6/3 600 м
[Cb calv Ci fib]
+13.7 +8.5 71 +13 +13 1011.6 924.9
18 19.08 СЗ 2 н/о 9/0
[Ac trans Ci fib]
+11.9 +8.6 80 +11 +11 1013.1 925.7
21 19.08 ЮВ 1 н/о 6/0
[Ac lent Ci fib]
+8.8 +7.7 93 +8 +8 1014.7 926.3
00 20.08 З 1 20 км 10/9 600 м
[Cb calv Ci fib]
+11.2 +9.4 89 +11 +11 1014.6 927.0 +8.8
03 20.08 СЗ 2 20 км 10/9 600 м
[Cb calv Ci fib]
+14.4 +10.1 75 +14 +15 1013.9 927.3
06 20.08 СЗ 2
{10}
20 км в посл. час ливневой дождь 10/10 600 м
[Cb calv]
+11.9 +9.7 86 +11 +11 1014.7 927.3

 

Местоположение метеостанции Баяндай (Иркутская область, Россия): широта 53.10 долгота 105.50 высота над уровнем моря 762 м.

В архиве по умолчанию представлена погода в Баяндае за последнюю неделю. Архивные данные за месяц целиком и за предыдущие месяцы, начиная с января 2011 года, Вы можете получить, выбрав интересующий диапазон дат из раскрывающегося списка и нажав кнопку "Ввод!".


*Определитесь, кто Вы:
робот инопланетянин человек

Внимание! Время в таблицах - всемирное. Для получения местного времени необходимо прибавить поправку, которая равна 8 ч.

Смотрите также архив погоды в соседних городах и на ближайших метеорологических станциях:

Погода в Усть-Ордынском (Иркутская область, Россия) (63 км)
Погода в Качуге (Иркутская область, Россия) (100 км)
Погода в Хомутово (Иркутская область, Россия) (108 км)
Погода в Большом Голоустном (Иркутская область, Россия) (119 км)
Погода в Худжире (Иркутская область, Россия) (121 км)
Погода в Иркутске (Иркутская область, Россия) (123 км)
Погода в Иркутске аэропорт (Иркутская область, Россия) (123 км)
Погода в Сухой (Бурятия, Россия) (124 км)
Погода в Ангарск (Иркутская область, Россия) (134 км)
Погода в Кабанске (Бурятия, Россия) (138 км)

Пояснения к столбцам:

Ветер - указаны скорость ветра в м/с - средняя за 10 мин, порывы в срок и между сроками (в фигурных скобках) и направление, откуда дует ветер: С - северный, СВ - северо-восточный, В - восточный, ЮВ - юго-восточный, Ю - южный, ЮЗ - юго-западный, З - западный, СЗ - северо-западный.
Видимость - горизонтальная дальность видимости в метрах или километрах. При видимости от 1 до 10 км при отсутствии осадков обычно наблюдается дымка, при ухудшении видимости до 1 км и менее - туман. В сухую погоду видимость может ухудшаться дымом, пылью или мглою.
Явления - указаны атмосферные явления, наблюдавшиеся в срок или в последний час перед сроком; фигурными скобками обозначены явления, наблюдавшиеся между сроками (за 1-3 часа до срока); квадратными скобками обозначены град или гололедные отложения с указанием их диаметра в мм.
Облачность - указаны через наклонную черту общая и нижняя облачность в баллах и высота нижней границы облаков в метрах; квадратными скобками обозначены формы облаков: Ci - перистые, Cs - перисто-слоистые, Cc - перисто-кучевые, Ac - высококучевые, As - высокослоистые, Sc - слоисто-кучевые, Ns - слоисто-дождевые, Cu - кучевые, Cb - кучево-дождевые. Подробнее классификацию облаков см. в Атласе облаков (PDF).
T - Температура воздуха - температура, измеренная на высоте 2 м над землей.
Td - Температура точки росы - температура, при понижении до которой содержащийся в воздухе водяной пар достигнет насыщения.
f - Относительная влажность воздуха - влажноcть воздуха, измеренная на высоте 2 м над землей.
Te - Эффективная температура - температура, которую ощущает одетый по сезону человек в тени. Характеристика душности погоды. При расчете учитывается влияние влажности воздуха и скорости ветра на теплоощущения человека.
Tes - Эффективная температура на солнце - температура, которую ощущает человек, с поправкой на солнечный нагрев. Характеристика знойности погоды. Зависит от высоты солнца над горизонтом, облачности и скорости ветра. Ночью, в пасмурную погоду, а также при ветре 12 м/с и более поправка равна нулю.
P - Атмосферное давление - приведенное к уровню моря атмосферное давление.
Po - Атмосферное давление - измеренное на уровне метеостанции атмосферное давление.
Tmin - Минимальная температура - минимум температуры воздуха на высоте 2 м над землей.
Tmax - Максимальная температура - максимум температуры воздуха на высоте 2 м над землей.
R - Количество осадков - Количество выпавших осадков за период времени, мм. При наведении курсора мыши на число - период времени, за который выпало указанное количество осадков.
R24 - Количество осадков - Количество выпавших осадков за 24 часа, мм.
S - Снежный покров - Высота снежного покрова, см. При наведении курсора мыши на число - состояние снежного покрова и степень покрытия местности в баллах.